Location: Allaines
(49.9632°N, 2.9458°E)
Time: 08:19:55
(UTC+00:00)

STARLINK-1192 - Pass Details

Date: 09 April 2020
Orbit: 549 x 550 km, 53.0° (Epoch: 07 June)

Event Time Altitude Azimuth Distance (km) Brightness Sun altitude
Rises 19:40:24 0° 290° (WNW) 2,730 9.3 -10.9°
Reaches altitude 10° 19:42:38 10° 291° (WNW) 1,834 7.8 -11.3°
Maximum altitude 19:46:49 86° 19° (NNE) 559 3.6 -11.9°
Enters shadow 19:49:46 19° 110° (ESE) 1,356 5.0 -12.3°
